Regional Weather Roundup
Issued by NWS Sterling, VA

Home | Current Version | Previous Version | Text Only | Print | Product List | Glossary Off
Versions: 1 2 3 4 5 6 7 8 9 10 11 12 13 14 15 16 17 18 19 20 21 22 23 24 25 26 27 28 29 30 31 32 33 34 35 36 37 38 39 40 41 42 43 44 45 46 47 48 49 50

000
ASUS41 KLWX 010710
RWRLWX

REGIONAL WEATHER ROUNDUP
NATIONAL WEATHER SERVICE BALTIMORE MD/WASHINGTON DC
300 AM EDT WED JUL 01 2015

Note: "FAIR" indicates few or no clouds below 12,000 feet
with no significant weather and/or obstructions to visibility.
 TC=TEMPERATURE CELSIUS

 * =Non NWS site. Station does not report precipitation (e.g. rain,
    snow, etc.), thunder, or fog.

DCZ001-MDZ009-015-VAZ040>042-051-053>054-010800-
WASHINGTON METRO

CITY           SKY/WX    TMP DP  RH WIND       PRES   REMARKS
WASHINGTON NAT LGT RAIN  69  65  86 S3        29.82F
DULLES         CLOUDY    66  65  96 S3        29.82F
ANDREWS AFB    LGT RAIN  66  65  97 S3        29.83F
FT BELVOIR     CLOUDY    66  64  94 E2        29.81F
QUANTICO       CLOUDY    71  66  84 S10       29.83F
LEESBURG*      CLOUDY    66  66 100 CALM      29.84S
MANASSAS*      CLOUDY    66  66 100 CALM      29.82F
GAITHERSBURG*  CLOUDY    66  63  88 CALM      29.86F

$$

MDZ006>007-011-014-010800-
BALTIMORE METRO

CITY           SKY/WX    TMP DP  RH WIND       PRES   REMARKS
BWI AIRPORT    RAIN      67  65  93 S5        29.83F FOG
MD SCIENCE CTR   N/A     68  66  93 MISG      29.82F
MARTIN STATE   RAIN      70  70 100 S6        29.87S
ANNAPOLIS      LGT RAIN  68  65  90 W6        29.84F FOG
FORT MEADE*    CLOUDY    64  63  94 CALM      29.85F

$$

MDZ012-015-019>023-010800-
MARYLAND EASTERN SHORE

CITY           SKY/WX    TMP DP  RH WIND       PRES   REMARKS
OCEAN CITY     CLOUDY    76  65  68 W10       29.81S
SALISBURY      CLOUDY    74  68  81 W5        29.82R
BAY BRIDGE AP* HVY RAIN  68  66  94 W13G18    29.85F
CAMBRIDGE*     CLOUDY    72  64  78 W8G16     29.83S
EASTON*        CLOUDY    71  69  92 NW10G22   29.87S

$$

MDZ017>025-010800-
SOUTHERN MARYLAND

CITY           SKY/WX    TMP DP  RH WIND       PRES   REMARKS
PATUXENT RIVER LGT RAIN  71  67  87 W9        29.83R
ST INIGOES     LGT RAIN  72  68  87 W13       29.83R
LEONARDTOWN*   CLOUDY    68  64  88 W7        29.86S

$$

MDZ003>005-010800-
NORTH CENTRAL MARYLAND

CITY           SKY/WX    TMP DP  RH WIND       PRES   REMARKS
FREDERICK*     CLOUDY    68  68 100 CALM      29.85S
HAGERSTOWN APT   N/A     69  62  78 S7        29.82
WESTMINSTER*   TSTM      66  64  94 S6        29.83S

$$

MDZ501>502-010800-
WESTERN MARYLAND

CITY           SKY/WX    TMP DP  RH WIND       PRES   REMARKS
OAKLAND*       CLOUDY    55 N/A N/A SW7       29.91S
CUMBERLAND*    CLOUDY    66  55  68 CALM      29.88R

$$

VAZ025>031-010800-
SHENANDOAH VALLEY

CITY           SKY/WX    TMP DP  RH WIND       PRES   REMARKS
WINCHESTER*    CLOUDY    66  63  88 CALM      29.83S
FRONT ROYAL*   PTSUNNY   64  63  94 S3        29.83R
LURAY*         PTSUNNY   68  68 100 CALM      29.85R
NEW MARKET*    CLOUDY    66  64  95 CALM      29.85R
STAUNTON*      CLEAR     65  63  93 S3        29.89F
WAYNESBORO*    FAIR      65  61  89 W3        29.88S

$$

WVZ021-048>050-054>055-010800-
EASTERN WEST VIRGINIA PANHANDLE

CITY           SKY/WX    TMP DP  RH WIND       PRES   REMARKS
MARTINSBURG    CLOUDY    66  62  87 SE3       29.82F
PETERSBURG*    MOCLDY    64  59  85 CALM      29.87R

$$

VAZ036>039-050-010800-
CENTRAL FOOTHILLS

CITY           SKY/WX    TMP DP  RH WIND       PRES   REMARKS
CHARLOTTESVILL PTCLDY    67  65  93 SW5       29.84R
CULPEPER*      CLOUDY    67  66  99 S3        29.83S
ORANGE*          N/A    N/A N/A N/A MISG        N/A
GORDONSVILLE*  CLOUDY    66  64  94 SW3       29.83S
WARRENTON*     FAIR      68  68 100 CALM      29.82F

$$

VAZ055>057-010800-
NORTH AND CENTRAL PIEDMONT

CITY           SKY/WX    TMP DP  RH WIND       PRES   REMARKS
FREDERICKSBRG* LGT RAIN  69  69 100 NW3       29.81F
STAFFORD*      CLOUDY    67  66  95 CALM      29.86F FOG

$$

NCZ024-NYZ072-PAZ021-071-VAZ022-071-010800-
OTHER REGIONAL OBSERVATIONS

CITY           SKY/WX    TMP DP  RH WIND       PRES   REMARKS
NEW YORK CITY  CLOUDY    73  69  87 VRB6      29.82S FOG
PHILADELPHIA   LGT RAIN  72  66  81 W18G30    29.81R
PITTSBURGH     MOCLDY    61  58  90 SW5       29.83S
ROANOKE        CLEAR     64  61  90 W6        29.94R
RICHMOND       CLOUDY    69  67  93 S7        29.83F
RALEIGH        MOCLDY    70  66  87 SW9       29.91F

$$

ANZ530>537-010800-
MARINE OBSERVATIONS

STATION/POSITION TIME  TEMP    WIND        PRES
                       AIR SEA DIR/SP/G
                 (UTC) (F)     (DEG/KT/KT) (MB)
THOMAS PT LIGHT  NOT AVBL
BALT KEY BRIDGE  0600   68     210/ 12/ 16 1010.4R
COVE POINT       0600   73     310/ 13/ 18 1010.1S
LEWISETTA        0600   72 80  260/ 15/ 19 1010.0R
SOLOMONS ISLAND  0600      79                N/A
PINEY POINT      0600          260/ 14/ 20   N/A

$$



USA.gov is the U.S. government's official web portal to all federal, state and local government web resources and services.